Location: Castelbiague
(43.0361°N, 0.9246°E)
Time: 19:28:24
(UTC+00:00)

Meteor 1-4 Rocket - Pass Details

Date: 19 October 2021
Orbit: 447 x 496 km, 81.2° (Epoch: 04 December)

Event Time Altitude Azimuth Distance (km) Brightness Sun altitude
Rises 05:33:30 0° 359° (N) 2,460 6.1 -8.3°
Reaches altitude 10° 05:35:43 10° 9° (N) 1,586 5.2 -7.9°
Maximum altitude 05:38:52 33° 75° (ENE) 784 4.4 -7.3°
Drops below altitude 10° 05:42:03 10° 141° (SE) 1,588 5.9 -6.7°
Sets 05:44:15 0° 152° (SSE) 2,464 6.7 -6.3°
